DL7GAI-7 Weather Reports


Display with metric or nautical units.
time (UTC)temp
F
wind
direction
speed
MPH
gust
MPH
rain 1hr
in
rain 24hr
in
rain mn
in
humidity
%
barometer
mb
20260906085928 63 270 4.0 7.0 0.00 0.00 0.00 67 1026.3
20260906084504 63 270 4.0 7.0 0.00 0.00 0.00 67 1026.3
20260906083124 61 270 6.0 7.0 0.00 0.00 0.00 74 1026.5
20260906081751 61 270 6.0 7.0 0.00 0.00 0.00 74 1026.5
20260906080506 60 270 4.0 6.0 0.00 0.00 0.00 77 1026.4
20260906075111 60 270 4.0 6.0 0.00 0.00 0.00 77 1026.4
20260906073731 60 270 4.0 6.0 0.00 0.00 0.00 77 1026.4
20260906072341 59 90 2.0 3.0 0.00 0.00 0.00 84 1026.2
20260906071124 59 90 2.0 3.0 0.00 0.00 0.00 84 1026.2
20260906065624 54 0 3.0 5.0 0.00 0.00 0.00 89 1026.9
20260906064321 54 0 3.0 5.0 0.00 0.00 0.00 89 1026.9
20260906062951 52 0 2.0 4.0 0.00 0.06 0.00 96 1027.1
20260906061736 52 0 2.0 4.0 0.00 0.06 0.00 96 1027.1
20260906060417 53 45 1.0 3.0 0.00 0.06 0.00 97 1026.7
20260906055141 53 45 1.0 3.0 0.00 0.06 0.00 97 1026.7
20260906053841 53 45 1.0 3.0 0.00 0.06 0.00 97 1026.7
20260906052521 53 0 2.0 3.0 0.00 0.06 0.00 98 1026.7
20260906051206 53 0 2.0 3.0 0.00 0.06 0.00 98 1026.7
20260906045826 54 0 3.0 4.0 0.00 0.06 0.00 98 1026.7
20260906044446 54 0 3.0 4.0 0.00 0.06 0.00 98 1026.7
20260906043124 54 45 1.0 2.0 0.00 0.06 0.00 96 1026.6
20260906041706 54 45 1.0 2.0 0.00 0.06 0.00 96 1026.6
20260906040428 56 315 2.0 3.0 0.00 0.06 0.00 99 1026.3
20260906035033 56 315 2.0 3.0 0.00 0.06 0.00 99 1026.3
20260906033656 56 315 2.0 3.0 0.00 0.06 0.00 99 1026.3
20260906032326 56 45 2.0 2.0 0.00 0.06 0.00 99 1026.2
20260906031056 56 45 2.0 2.0 0.00 0.06 0.00 99 1026.2
20260906025641 56 0 2.0 4.0 0.00 0.06 0.00 99 1026.1
20260906024241 56 0 2.0 4.0 0.00 0.06 0.00 99 1026.1
20260906022844 57 45 2.0 3.0 0.00 0.06 0.00 98 1026.0
20260906021441 57 45 2.0 3.0 0.00 0.06 0.00 98 1026.0
20260906020125 57 0 2.0 6.0 0.00 0.06 0.00 97 1026.2
20260906014731 57 0 2.0 6.0 0.00 0.06 0.00 97 1026.2
20260906013256 57 0 3.0 4.0 0.00 0.06 0.00 97 1026.1
20260906011941 57 0 3.0 4.0 0.00 0.06 0.00 97 1026.1
20260906010701 57 0 3.0 4.0 0.00 0.06 0.00 97 1026.1
20260906005404 58 0 2.0 5.0 0.00 0.06 0.00 97 1026.2
20260906004116 58 0 2.0 5.0 0.00 0.06 0.00 97 1026.2
20260906002801 58 315 2.0 5.0 0.00 0.06 0.06 96 1026.2
20260906001406 58 315 2.0 5.0 0.00 0.06 0.06 96 1026.2
20260906000004 59 90 2.0 5.0 0.00 0.06 0.06 97 1026.3
20260905234631 59 90 2.0 5.0 0.00 0.06 0.06 97 1026.3
20260905233251 59 0 2.0 4.0 0.00 0.06 0.06 95 1026.0
20260905231936 59 0 2.0 4.0 0.00 0.06 0.06 95 1026.0
20260905230642 59 0 2.0 4.0 0.00 0.06 0.06 95 1026.0
20260905225311 60 90 2.0 6.0 0.00 0.06 0.06 95 1026.0
20260905223856 60 90 2.0 6.0 0.00 0.06 0.06 95 1026.0
20260905222631 59 0 3.0 6.0 0.00 0.06 0.06 95 1025.9
20260905221241 59 0 3.0 6.0 0.00 0.06 0.06 95 1025.9
20260905220021 60 315 5.0 6.0 0.00 0.06 0.06 94 1025.6
20260905214656 60 315 5.0 6.0 0.00 0.06 0.06 94 1025.6
20260905213350 60 45 2.0 4.0 0.00 0.06 0.06 94 1025.6
20260905211951 60 45 2.0 4.0 0.00 0.06 0.06 94 1025.6
20260905210631 60 45 2.0 4.0 0.00 0.06 0.06 94 1025.6
20260905205329 61 0 1.0 4.0 0.00 0.06 0.06 91 1025.2
20260905203926 61 0 1.0 4.0 0.00 0.06 0.06 91 1025.2
20260905202510 62 45 2.0 4.0 0.00 0.06 0.06 90 1025.0
20260905201216 62 45 2.0 4.0 0.00 0.06 0.06 90 1025.0
20260905195844 62 45 2.0 6.0 0.00 0.06 0.06 88 1024.7
20260905194551 62 45 2.0 6.0 0.00 0.06 0.06 88 1024.7
20260905193215 63 45 2.0 4.0 0.00 0.06 0.06 84 1024.2
20260905191956 63 45 2.0 4.0 0.00 0.06 0.06 84 1024.2
20260905190611 63 45 2.0 4.0 0.00 0.06 0.06 84 1024.2
20260905185241 67 225 2.0 8.0 0.00 0.06 0.06 75 1023.5
20260905183906 67 225 2.0 8.0 0.00 0.06 0.06 75 1023.5
20260905182621 69 225 2.0 8.0 0.00 0.06 0.06 69 1023.1
20260905181231 69 225 2.0 8.0 0.00 0.06 0.06 69 1023.1
20260905175816 70 270 5.0 16.0 0.00 0.06 0.06 66 1023.0
20260905174416 70 270 5.0 16.0 0.00 0.06 0.06 66 1023.0
20260905172447 71 270 8.0 16.0 0.00 0.06 0.06 65 1022.8
20260905171127 71 270 8.0 16.0 0.00 0.06 0.06 65 1022.8
20260905165837 70 225 7.0 13.0 0.00 0.06 0.06 69 1022.7
20260905164412 70 225 7.0 13.0 0.00 0.06 0.06 69 1022.7
20260905163145 69 270 5.0 13.0 0.00 0.06 0.06 68 1022.9
20260905161857 69 270 5.0 13.0 0.00 0.06 0.06 68 1022.9
20260905160537 68 270 4.0 18.0 0.00 0.06 0.06 71 1023.3
20260905155102 68 270 4.0 18.0 0.00 0.06 0.06 71 1023.3
20260905153752 68 270 4.0 18.0 0.00 0.06 0.06 71 1023.3
20260905152342 66 225 6.0 18.0 0.00 0.06 0.06 80 1023.5
20260905151017 66 225 6.0 18.0 0.00 0.06 0.06 80 1023.5
20260905145632 66 270 12.0 21.0 0.00 0.06 0.06 74 1023.8
20260905144302 66 270 12.0 21.0 0.00 0.06 0.06 74 1023.8
20260905142952 69 270 7.0 19.0 0.00 0.05 0.05 67 1023.1
20260905141722 69 270 7.0 19.0 0.00 0.05 0.05 67 1023.1
20260905140359 70 270 6.0 11.0 0.00 0.05 0.05 74 1022.7
20260905135037 70 270 6.0 11.0 0.00 0.05 0.05 74 1022.7
20260905133817 70 270 6.0 11.0 0.00 0.05 0.05 74 1022.7
20260905132547 71 225 5.0 8.0 0.00 0.05 0.05 71 1022.4
20260905131307 71 225 5.0 8.0 0.00 0.05 0.05 71 1022.4
20260905130012 70 225 2.0 5.0 0.00 0.05 0.05 69 1022.7
20260905124702 70 225 2.0 5.0 0.00 0.05 0.05 69 1022.7
20260905123447 69 180 2.0 5.0 0.00 0.05 0.05 74 1022.8
20260905122157 69 180 2.0 5.0 0.00 0.05 0.05 74 1022.8
20260905120832 69 180 2.0 5.0 0.00 0.05 0.05 74 1022.8
20260905115522 68 90 2.0 7.0 0.00 0.05 0.05 74 1022.8
20260905114107 68 90 2.0 7.0 0.00 0.05 0.05 74 1022.8
20260905112757 67 45 2.0 7.0 0.00 0.05 0.05 74 1023.0
20260905111427 67 45 2.0 7.0 0.00 0.05 0.05 74 1023.0
20260905105948 67 0 5.0 9.0 0.00 0.05 0.05 69 1022.7
20260905104627 67 0 5.0 9.0 0.00 0.05 0.05 69 1022.7
20260905103337 69 0 5.0 7.0 0.00 0.05 0.05 76 1022.4
20260905101912 69 0 5.0 7.0 0.00 0.05 0.05 76 1022.4
20260905100612 69 0 5.0 7.0 0.00 0.05 0.05 76 1022.4
20260905095222 69 0 4.0 8.0 0.00 0.05 0.05 79 1022.3
20260905093927 69 0 4.0 8.0 0.00 0.05 0.05 79 1022.3
20260905092552 67 315 6.0 8.0 0.00 0.05 0.05 80 1022.0
20260905091222 67 315 6.0 8.0 0.00 0.05 0.05 80 1022.0